[[{"header":{"parameterUnit":"m.s-1","parameterCategory":1,"la1":30.2991,"la2":30.254,"lo1":-89.0895,"lo2":-89.0444,"dy":0.0017,"dx":0.0017,"nx":28,"ny":28,"refTime":"2025-07-04T03:00:00:Z","depth":0,"parameterNumber":2,"parameterNumberName":"U-component_of_WINDS"},"data":[0,0,0,0,0,0,0,0,0,0,0,0,0,0,0,0,0,0,0,0,0,0,0,0,0,0,0,0,0,0,0,0,0,0,0,0,0,0,0,0,0,0,0,0,0,0,0,0,0,0,0,0,0,0,0,0,0,0,0.2513,0.2512,0,0.2423,0.2422,0.2421,0.2382,0.2382,0.2382,0.2382,0.2287,0.2284,0.2282,0,0,0,0,0,0,0,0,0,0,0,0,0,0.2648,0.2646,0.2513,0.2512,0.2511,0.2424,0.2422,0.2421,0.2382,0.2382,0.2382,0.2383,0.2288,0.2285,0.2281,0,0,0,0,0,0,0,0,0,0,0,0,0,0.2577,0.2645,0.2513,0.2481,0.2477,0.2424,0.2422,0.2421,0.2382,0.2382,0.2382,0.2383,0.2289,0.2285,0.2281,0.2252,0,0,0.2269,0.2267,0,0,0,0,0,0,0,0,0.2581,0.2572,0.2487,0.2483,0.2479,0.2414,0.2435,0.2364,0.2382,0.2418,0.2382,0.2383,0.2329,0.2322,0.2304,0.2247,0.2243,0.2268,0.2266,0.2264,0.2263,0,0,0,0,0,0,0,0.2586,0.2575,0.2477,0.2486,0.2481,0.247,0.246,0.2421,0.2373,0.2415,0.2412,0.2402,0.2327,0.2308,0.2302,0.2242,0.2268,0.2265,0.2262,0.2261,0.2157,0.2156,0,0,0,0,0,0,0.2597,0.258,0.248,0.2475,0.2532,0.2467,0.2456,0.2435,0.2374,0.2364,0.2402,0.24,0.2315,0.2306,0.2298,0.226,0.2264,0.226,0.2258,0.2157,0.2157,0.2156,0,0,0,0,0,0,0.26,0.2588,0.2484,0.2526,0.2512,0.2465,0.2441,0.2433,0.2414,0.2364,0.2355,0.2392,0.2315,0.2304,0.2264,0.2256,0.2259,0.2255,0.2157,0.2157,0.2156,0.2184,0,0,0,0,0,0,0.2604,0.2589,0.2579,0.2527,0.251,0.2452,0.244,0.2431,0.2408,0.2405,0.2352,0.2343,0.2314,0.227,0.226,0.2251,0.2252,0.2158,0.2157,0.2157,0.2183,0.2184,0.2185,0,0,0,0,0,0.2609,0.2589,0.2578,0.2566,0.2496,0.2452,0.2443,0.241,0.2407,0.2396,0.2363,0.2345,0.2259,0.2266,0.2255,0.2244,0.2158,0.2157,0.2157,0.2183,0.2184,0.2185,0,0,0,0,0,0,0.264,0.2581,0.2569,0.2532,0.2498,0.2446,0.243,0.2412,0.2377,0.2376,0.2336,0.2324,0.2288,0.2262,0.2271,0.2212,0.2207,0.2204,0.2231,0.2231,0.2232,0.2239,0.2248,0,0,0,0,0,0.2643,0.2613,0.2563,0.2535,0.2519,0.2477,0.2457,0.2435,0.2397,0.2382,0.2347,0.231,0.2274,0.2251,0.2216,0.2179,0.2167,0.2166,0.2167,0.2168,0.2165,0.2144,0.2143,0.2154,0.2154,0.2154,0,0,0.2648,0.2612,0.2595,0.2541,0.2511,0.248,0.2465,0.2433,0.2409,0.2377,0.2337,0.231,0.2266,0.2228,0.2209,0.2205,0.216,0.2167,0.2168,0.2165,0.2143,0.2142,0.2142,0.2153,0.2153,0.2153,0,0,0.2641,0.2611,0.2585,0.2556,0.2513,0.2485,0.2479,0.243,0.2411,0.2371,0.2346,0.2317,0.2257,0.2226,0.2203,0.2186,0.2168,0.2175,0.2179,0.2159,0.2158,0.2157,0.2151,0.2149,0.2173,0.2173,0.2173,0,0.2652,0.2606,0.2573,0.2543,0.252,0.249,0.2463,0.2436,0.2382,0.2366,0.2363,0.2287,0.2255,0.2209,0.2206,0.2188,0.2179,0.2181,0.2161,0.216,0.2159,0.2152,0.215,0.2174,0.2174,0.2174,0.2174,0,0.2622,0.259,0.2574,0.2525,0.2499,0.247,0.2433,0.2411,0.2392,0.2365,0.2324,0.2285,0.2242,0.2229,0.2209,0.2181,0.218,0.2169,0.2163,0.216,0.2153,0.215,0.2176,0.2176,0.2175,0.2175,0,0,0.2632,0.2566,0.256,0.2537,0.2487,0.2461,0.2431,0.239,0.2372,0.2336,0.2309,0.2259,0.225,0.2223,0.22,0.2182,0.2171,0.2174,0.2172,0.2174,0.2137,0.2144,0.2142,0.2159,0.2158,0.2158,0.214,0,0.2618,0.2564,0.2534,0.2492,0.2462,0.2433,0.2407,0.2373,0.2347,0.2317,0.2288,0.2253,0.2243,0.2227,0.2209,0.2176,0.2163,0.2177,0.2133,0.2131,0.2144,0.2139,0.2146,0.2132,0.2137,0.2137,0.2137,0,0.2594,0.2561,0.2516,0.247,0.2456,0.2433,0.2393,0.2365,0.2325,0.2307,0.2279,0.2256,0.2222,0.2219,0.2171,0.2182,0.2162,0.2144,0.2142,0.2136,0.2133,0.2132,0.2126,0.2124,0.2132,0.2132,0.2133,0,0.2606,0.2549,0.2515,0.2496,0.2441,0.2426,0.2402,0.2363,0.234,0.2305,0.2289,0.225,0.2228,0.2198,0.2165,0.2166,0.2121,0.2115,0.2104,0.2105,0.2095,0.2096,0.2086,0.2083,0.2084,0.2084,0.2084,0,0.2593,0.2567,0.2519,0.2498,0.2468,0.2433,0.2404,0.2378,0.2343,0.2316,0.2289,0.2264,0.2222,0.2191,0.2165,0.213,0.212,0.2104,0.2097,0.2106,0.2108,0.2092,0.2092,0.2083,0.2083,0.2083,0.2083,0,0.26,0.2568,0.2528,0.248,0.2468,0.2447,0.2405,0.2384,0.2357,0.2323,0.2313,0.227,0.2232,0.2197,0.2146,0.2129,0.2093,0.2084,0.2107,0.2103,0.2094,0.2096,0.2073,0.2068,0.207,0.207,0.207,0,0.2594,0.2574,0.2524,0.2504,0.2482,0.245,0.2427,0.2393,0.2369,0.2324,0.2307,0.2268,0.2235,0.2176,0.214,0.2101,0.2091,0.2086,0.2085,0.2095,0.2091,0.2092,0.209,0.2087,0.2087,0.2087,0.2087,0,0.2587,0.2572,0.2541,0.2503,0.2477,0.2445,0.2413,0.2398,0.2358,0.2333,0.2295,0.227,0.2219,0.218,0.2137,0.2112,0.2092,0.2088,0.2083,0.2092,0.2106,0.2098,0.2108,0.2088,0.2088,0.2088,0.2088,0.2088,0.2587,0.2567,0.253,0.2495,0.2468,0.2438,0.2415,0.2386,0.2355,0.2311,0.2293,0.2254,0.2215,0.2156,0.2131,0.21,0.2095,0.2089,0.2087,0.2086,0.2088,0.2111,0.2092,0.2092,0.2092,0.2092,0.2092,0,0.2578,0.2553,0.2522,0.2478,0.2451,0.2437,0.24,0.2378,0.2345,0.2311,0.228,0.2236,0.2199,0.216,0.212,0.2103,0.2093,0.2093,0.2094,0.2088,0.2094,0.2102,0.2102,0.2102,0.2102,0.2102,0.2102,0.2102,0.257,0.2536,0.2517,0.2469,0.2443,0.2406,0.2387,0.2359,0.2332,0.2285,0.2255,0.223,0.2194,0.2151,0.2116,0.2106,0.2092,0.2095,0.2082,0.2088,0.2088,0.2087,0.2094,0.2093,0.2093,0.2079,0.2078,0.2078]},{"header":{"parameterUnit":"m.s-1","parameterCategory":1,"la1":30.2991,"la2":30.254,"lo1":-89.0895,"lo2":-89.0444,"dy":0.0017,"dx":0.0017,"nx":28,"ny":28,"refTime":"2025-07-04T03:00:00:Z","depth":0,"parameterNumber":3,"parameterNumberName":"V-component_of_WINDS"},"data":[0,0,0,0,0,0,0,0,0,0,0,0,0,0,0,0,0,0,0,0,0,0,0,0,0,0,0,0,0,0,0,0,0,0,0,0,0,0,0,0,0,0,0,0,0,0,0,0,0,0,0,0,0,0,0,0,0,0,-3.3454,-3.3455,0,-3.356,-3.3561,-3.3563,-3.3529,-3.3527,-3.3525,-3.3522,-3.3628,-3.3633,-3.3638,0,0,0,0,0,0,0,0,0,0,0,0,0,-3.322,-3.3225,-3.3454,-3.3455,-3.3457,-3.356,-3.3561,-3.3563,-3.3529,-3.3527,-3.3524,-3.3521,-3.3627,-3.3633,-3.3638,0,0,0,0,0,0,0,0,0,0,0,0,0,-3.3324,-3.3226,-3.3454,-3.3453,-3.3454,-3.356,-3.3561,-3.3563,-3.353,-3.3527,-3.3523,-3.352,-3.3625,-3.3632,-3.3639,-3.3752,0,0,-3.3662,-3.3665,0,0,0,0,0,0,0,0,-3.3318,-3.3332,-3.3451,-3.3453,-3.3454,-3.3528,-3.3518,-3.3627,-3.3531,-3.3501,-3.3522,-3.3519,-3.3598,-3.3607,-3.3634,-3.3757,-3.3762,-3.3662,-3.3667,-3.367,-3.3672,0,0,0,0,0,0,0,-3.3311,-3.3327,-3.3496,-3.3453,-3.3455,-3.3446,-3.3457,-3.3538,-3.3567,-3.3503,-3.3501,-3.3514,-3.3598,-3.3627,-3.3636,-3.3763,-3.3662,-3.3669,-3.3673,-3.3676,-3.3985,-3.3988,0,0,0,0,0,0,-3.3303,-3.3322,-3.3493,-3.3499,-3.3376,-3.3453,-3.3465,-3.3508,-3.3566,-3.3571,-3.3517,-3.3512,-3.3616,-3.3628,-3.364,-3.3777,-3.367,-3.3677,-3.3681,-3.3981,-3.3986,-3.399,0,0,0,0,0,0,-3.3298,-3.3319,-3.3488,-3.341,-3.3431,-3.3461,-3.3509,-3.3512,-3.3541,-3.3576,-3.3581,-3.3542,-3.3614,-3.363,-3.3725,-3.378,-3.368,-3.3687,-3.3977,-3.3982,-3.3988,-3.4051,0,0,0,0,0,0,-3.3292,-3.3317,-3.3361,-3.3411,-3.3435,-3.3572,-3.3512,-3.3516,-3.3554,-3.3549,-3.3601,-3.3606,-3.3613,-3.3714,-3.3732,-3.3788,-3.3693,-3.3972,-3.3979,-3.3986,-3.4044,-3.4058,-3.407,0,0,0,0,0,-3.3283,-3.3374,-3.3363,-3.3384,-3.3491,-3.3576,-3.3589,-3.3595,-3.3559,-3.3603,-3.3625,-3.3605,-3.3771,-3.3724,-3.3744,-3.3803,-3.3968,-3.3977,-3.3985,-3.4038,-3.4055,-3.407,0,0,0,0,0,0,-3.3328,-3.338,-3.3369,-3.3479,-3.3523,-3.357,-3.3626,-3.3613,-3.3668,-3.3661,-3.3665,-3.3677,-3.3775,-3.3798,-3.3746,-3.3916,-3.3864,-3.3877,-3.3897,-3.3914,-3.3926,-3.3919,-3.3699,0,0,0,0,0,-3.3351,-3.3416,-3.3458,-3.355,-3.3573,-3.3596,-3.3633,-3.3634,-3.368,-3.3698,-3.3727,-3.3772,-3.3834,-3.3875,-3.3934,-3.4047,-3.4058,-3.4097,-3.411,-3.4121,-3.4132,-3.4194,-3.4212,-3.4018,-3.4017,-3.4017,0,0,-3.3398,-3.3434,-3.3475,-3.356,-3.3595,-3.3662,-3.3612,-3.3685,-3.3734,-3.3709,-3.3801,-3.3824,-3.3874,-3.3979,-3.4026,-3.4001,-3.4188,-3.4132,-3.414,-3.4145,-3.4204,-3.4223,-3.4239,-3.4023,-3.4022,-3.4021,0,0,-3.3519,-3.3553,-3.3634,-3.367,-3.3723,-3.3738,-3.3757,-3.3806,-3.3821,-3.3914,-3.3897,-3.3955,-3.4062,-3.4099,-3.4131,-3.4266,-3.425,-3.4285,-3.4353,-3.4414,-3.4429,-3.4443,-3.4491,-3.4509,-3.4296,-3.4296,-3.4297,0,-3.357,-3.3672,-3.3677,-3.3752,-3.379,-3.3771,-3.3853,-3.3887,-3.3957,-3.3983,-3.3954,-3.4089,-3.4121,-3.4234,-3.4267,-3.4294,-3.4316,-3.428,-3.4426,-3.444,-3.4453,-3.45,-3.4518,-3.4301,-3.43,-3.43,-3.4299,0,-3.3733,-3.3804,-3.3863,-3.3932,-3.3976,-3.4054,-3.4071,-3.4115,-3.4112,-3.413,-3.4224,-3.4262,-3.4329,-3.4356,-3.4353,-3.4469,-3.4452,-3.4425,-3.4373,-3.4475,-3.4519,-3.4537,-3.4306,-3.4305,-3.4304,-3.4303,0,0,-3.3885,-3.3957,-3.3978,-3.401,-3.4068,-3.4122,-3.4199,-3.4265,-3.4303,-3.4352,-3.4417,-3.4508,-3.4483,-3.452,-3.4521,-3.4574,-3.468,-3.4541,-3.4542,-3.4566,-3.4811,-3.4831,-3.4852,-3.4669,-3.4672,-3.4675,-3.4807,0,-3.4011,-3.4148,-3.4156,-3.428,-3.4345,-3.4328,-3.4395,-3.4437,-3.4456,-3.4513,-3.4532,-3.4598,-3.456,-3.4582,-3.4634,-3.4656,-3.4729,-3.4647,-3.4729,-3.4732,-3.4718,-3.4875,-3.4897,-3.502,-3.4824,-3.4827,-3.4829,0,-3.4177,-3.4232,-3.4363,-3.4412,-3.444,-3.4501,-3.4562,-3.4618,-3.4665,-3.4674,-3.4716,-3.471,-3.4789,-3.4734,-3.4842,-3.4785,-3.4819,-3.4835,-3.484,-3.4849,-3.4787,-3.4888,-3.5059,-3.5078,-3.4856,-3.4854,-3.4852,0,-3.4276,-3.4382,-3.4475,-3.4502,-3.4562,-3.4605,-3.4631,-3.4675,-3.4715,-3.4769,-3.4795,-3.4856,-3.489,-3.4937,-3.4948,-3.4907,-3.5056,-3.5002,-3.5066,-3.5066,-3.5099,-3.5097,-3.5278,-3.5119,-3.5119,-3.5119,-3.5118,0,-3.4416,-3.4497,-3.452,-3.4577,-3.4668,-3.4675,-3.4763,-3.4787,-3.4827,-3.4887,-3.4875,-3.4932,-3.4942,-3.5001,-3.5009,-3.5098,-3.5113,-3.5123,-3.5124,-3.5125,-3.5124,-3.5147,-3.5139,-3.5124,-3.5123,-3.5122,-3.5121,0,-3.4542,-3.4561,-3.4661,-3.4709,-3.4723,-3.4788,-3.4829,-3.4883,-3.49,-3.4977,-3.4995,-3.5022,-3.5091,-3.5106,-3.5187,-3.5192,-3.5298,-3.529,-3.5283,-3.5282,-3.5346,-3.534,-3.555,-3.5578,-3.54,-3.5402,-3.5403,0,-3.4631,-3.4693,-3.4749,-3.4789,-3.4818,-3.4883,-3.4924,-3.4933,-3.4976,-3.5035,-3.5083,-3.5151,-3.5206,-3.5317,-3.5342,-3.5405,-3.5399,-3.5468,-3.5408,-3.5407,-3.5401,-3.5398,-3.5404,-3.548,-3.5482,-3.5483,-3.5484,0,-3.4787,-3.4794,-3.4854,-3.4917,-3.4967,-3.5017,-3.5065,-3.5098,-3.5114,-3.5162,-3.5234,-3.5276,-3.536,-3.5428,-3.549,-3.5516,-3.5504,-3.5503,-3.5521,-3.5523,-3.5516,-3.5522,-3.5315,-3.5498,-3.5497,-3.5496,-3.5495,-3.5495,-3.4898,-3.4953,-3.5001,-3.5068,-3.5105,-3.515,-3.5204,-3.5229,-3.5288,-3.5358,-3.536,-3.5437,-3.5483,-3.5566,-3.5596,-3.5657,-3.5635,-3.5661,-3.5668,-3.5675,-3.5681,-3.5506,-3.5668,-3.5667,-3.5667,-3.5667,-3.5666,0,-3.5054,-3.5084,-3.5146,-3.5214,-3.5268,-3.5251,-3.5303,-3.5349,-3.5418,-3.5462,-3.5517,-3.5599,-3.5664,-3.5696,-3.576,-3.5803,-3.5798,-3.582,-3.5817,-3.5823,-3.5696,-3.5675,-3.5822,-3.5822,-3.5822,-3.5822,-3.5822,-3.5822,-3.5142,-3.5234,-3.5246,-3.5357,-3.5386,-3.5464,-3.5495,-3.5536,-3.5572,-3.5664,-3.572,-3.574,-3.5779,-3.5846,-3.5906,-3.5913,-3.5938,-3.5962,-3.5967,-3.5848,-3.5832,-3.5817,-3.5797,-3.5967,-3.5968,-3.6089,-3.609,-3.6091]}]]